^^
Your Local Weather - Clay, NY Station Historical Data
Daily Summary for November 27, 2017 Units:  English    Metric   Both
« Previous Day
Next Day »
Daily Weekly Monthly Yearly Custom
  High: Low: Average:
Temperature: 40.6 °F 22.2 °F 33.5 °F
Dew Point: 30.8 °F 17.3 °F 24.2 °F
Humidity: 84% 56% 69%
Wind Speed: 8.0mph 0.0mph 3mph
Wind Gust: 14.0mph - -
Wind- - West
Pressure: 30.26 in 29.80 in -
Precipitation: 0.02 in    
Historical Graphs
 
 
Tabular Data for November 27, 2017
Time Temperature Dew Point Pressure Wind Wind Speed Wind Gust Humidity Rainfall Rate (Hourly) solar
00:02 36.6 °F 29.7 °F 29.83 in SW 3.0 mph 7.0 mph 76% 0.00 in 0 W/m2
00:09 36.9 °F 30.0 °F 29.82 in WSW 3.0 mph 7.0 mph 76% 0.00 in 0 W/m2
00:14 37.1 °F 29.9 °F 29.82 in SSW 3.0 mph 3.0 mph 75% 0.00 in 0 W/m2
00:20 37.3 °F 29.8 °F 29.82 in SW 3.0 mph 3.0 mph 74% 0.00 in 0 W/m2
00:26 37.7 °F 30.2 °F 29.82 in WSW 4.0 mph 7.0 mph 74% 0.00 in 0 W/m2
00:32 37.8 °F 29.9 °F 29.82 in SSW 3.0 mph 3.0 mph 73% 0.00 in 0 W/m2
00:38 37.9 °F 30.0 °F 29.81 in WSW 3.0 mph 4.0 mph 73% 0.00 in 0 W/m2
00:44 38.1 °F 30.2 °F 29.81 in SW 3.0 mph 3.0 mph 73% 0.00 in 0 W/m2
00:50 38.1 °F 29.9 °F 29.81 in SSW 2.0 mph 2.0 mph 72% 0.00 in 0 W/m2
00:56 38.3 °F 30.1 °F 29.80 in SW 3.0 mph 7.0 mph 72% 0.00 in 0 W/m2
01:02 38.5 °F 30.3 °F 29.81 in West 4.0 mph 4.0 mph 72% 0.00 in 0 W/m2
01:08 38.7 °F 30.1 °F 29.80 in SSW 4.0 mph 10.0 mph 71% 0.00 in 0 W/m2
01:14 38.7 °F 30.1 °F 29.80 in WSW 4.0 mph 4.0 mph 71% 0.00 in 0 W/m2
01:20 38.8 °F 30.2 °F 29.80 in WSW 3.0 mph 3.0 mph 71% 0.00 in 0 W/m2
01:26 38.9 °F 30.3 °F 29.80 in SW 5.0 mph 7.0 mph 71% 0.00 in 0 W/m2
01:32 39.1 °F 30.1 °F 29.81 in West 5.0 mph 9.0 mph 70% 0.00 in 0 W/m2
01:38 39.2 °F 30.2 °F 29.81 in West 4.0 mph 9.0 mph 70% 0.00 in 0 W/m2
01:44 39.1 °F 30.5 °F 29.81 in West 3.0 mph 6.0 mph 71% 0.00 in 0 W/m2
01:50 39.1 °F 30.1 °F 29.81 in West 4.0 mph 4.0 mph 70% 0.00 in 0 W/m2
01:56 39.1 °F 30.1 °F 29.82 in SW 5.0 mph 12.0 mph 70% 0.00 in 0 W/m2
02:02 39.2 °F 30.2 °F 29.82 in WSW 4.0 mph 4.0 mph 70% 0.00 in 0 W/m2
02:08 39.2 °F 30.2 °F 29.82 in WSW 3.0 mph 4.0 mph 70% 0.00 in 0 W/m2
02:14 39.3 °F 30.3 °F 29.82 in SW 4.0 mph 7.0 mph 70% 0.00 in 0 W/m2
02:20 39.4 °F 30.4 °F 29.82 in West 5.0 mph 5.0 mph 70% 0.00 in 0 W/m2
02:26 39.4 °F 30.4 °F 29.82 in WSW 4.0 mph 9.0 mph 70% 0.00 in 0 W/m2
02:32 39.5 °F 30.2 °F 29.82 in West 5.0 mph 5.0 mph 69% 0.00 in 0 W/m2
02:38 39.5 °F 30.5 °F 29.82 in WSW 4.0 mph 5.0 mph 70% 0.00 in 0 W/m2
02:44 39.5 °F 30.2 °F 29.82 in WSW 5.0 mph 10.0 mph 69% 0.00 in 0 W/m2
02:50 39.6 °F 30.3 °F 29.82 in West 5.0 mph 9.0 mph 69% 0.00 in 0 W/m2
03:02 39.5 °F 30.5 °F 29.83 in WNW 4.0 mph 8.0 mph 70% 0.00 in 0 W/m2
03:08 39.4 °F 30.4 °F 29.83 in WNW 4.0 mph 8.0 mph 70% 0.00 in 0 W/m2
03:14 39.4 °F 30.8 °F 29.83 in West 3.0 mph 4.0 mph 71% 0.00 in 0 W/m2
03:20 39.3 °F 30.7 °F 29.83 in West 2.0 mph 2.0 mph 71% 0.00 in 0 W/m2
03:26 39.3 °F 30.7 °F 29.83 in West 3.0 mph 6.0 mph 71% 0.00 in 0 W/m2
03:32 39.3 °F 30.7 °F 29.83 in WSW 3.0 mph 3.0 mph 71% 0.00 in 0 W/m2
03:38 39.3 °F 30.7 °F 29.83 in WNW 2.0 mph 3.0 mph 71% 0.00 in 0 W/m2
03:44 39.3 °F 30.7 °F 29.84 in West 2.0 mph 4.0 mph 71% 0.00 in 0 W/m2
03:50 39.3 °F 30.7 °F 29.84 in WSW 2.0 mph 2.0 mph 71% 0.00 in 0 W/m2
03:56 39.3 °F 30.7 °F 29.85 in WNW 2.0 mph 4.0 mph 71% 0.00 in 0 W/m2
04:02 39.7 °F 30.7 °F 29.85 in West 4.0 mph 5.0 mph 70% 0.00 in 0 W/m2
04:08 40.0 °F 30.3 °F 29.85 in WNW 4.0 mph 5.0 mph 68% 0.00 in 0 W/m2
04:14 40.3 °F 30.6 °F 29.85 in NW 4.0 mph 5.0 mph 68% 0.00 in 0 W/m2
04:20 40.6 °F 30.5 °F 29.86 in WNW 5.0 mph 5.0 mph 67% 0.00 in 0 W/m2
04:26 40.6 °F 30.5 °F 29.86 in WSW 5.0 mph 8.0 mph 67% 0.00 in 0 W/m2
04:32 40.5 °F 30.4 °F 29.86 in NW 5.0 mph 5.0 mph 67% 0.00 in 0 W/m2
04:38 40.4 °F 29.9 °F 29.87 in WNW 5.0 mph 8.0 mph 66% 0.00 in 0 W/m2
04:44 40.3 °F 29.5 °F 29.87 in WNW 5.0 mph 10.0 mph 65% 0.00 in 0 W/m2
04:50 40.2 °F 29.4 °F 29.88 in NW 5.0 mph 5.0 mph 65% 0.00 in 0 W/m2
04:56 39.9 °F 29.5 °F 29.88 in WNW 5.0 mph 6.0 mph 66% 0.00 in 0 W/m2
05:02 39.7 °F 29.3 °F 29.88 in West 5.0 mph 5.0 mph 66% 0.00 in 0 W/m2
05:08 39.6 °F 29.2 °F 29.88 in West 4.0 mph 7.0 mph 66% 0.00 in 0 W/m2
05:14 39.7 °F 28.9 °F 29.88 in NW 4.0 mph 7.0 mph 65% 0.00 in 0 W/m2
05:20 39.7 °F 28.9 °F 29.88 in WNW 4.0 mph 4.0 mph 65% 0.00 in 0 W/m2
05:26 39.7 °F 28.9 °F 29.88 in WNW 4.0 mph 6.0 mph 65% 0.00 in 0 W/m2
05:32 39.8 °F 29.0 °F 29.88 in WNW 4.0 mph 8.0 mph 65% 0.00 in 0 W/m2
05:38 39.9 °F 27.9 °F 29.89 in WNW 5.0 mph 8.0 mph 62% 0.00 in 0 W/m2
05:44 39.9 °F 27.5 °F 29.89 in NW 4.0 mph 7.0 mph 61% 0.00 in 0 W/m2
05:50 39.9 °F 27.5 °F 29.90 in WNW 4.0 mph 7.0 mph 61% 0.00 in 0 W/m2
05:56 40.0 °F 27.6 °F 29.90 in West 5.0 mph 10.0 mph 61% 0.00 in 0 W/m2
06:02 40.0 °F 28.0 °F 29.90 in WNW 6.0 mph 7.0 mph 62% 0.00 in 0 W/m2
06:08 39.9 °F 28.3 °F 29.90 in WNW 5.0 mph 7.0 mph 63% 0.00 in 0 W/m2
06:14 39.8 °F 28.2 °F 29.91 in North 4.0 mph 14.0 mph 63% 0.00 in 0 W/m2
06:20 39.8 °F 28.2 °F 29.91 in West 4.0 mph 4.0 mph 63% 0.00 in 0 W/m2
06:26 39.9 °F 28.3 °F 29.91 in NW 5.0 mph 7.0 mph 63% 0.00 in 0 W/m2
06:32 39.8 °F 28.6 °F 29.91 in WNW 4.0 mph 4.0 mph 64% 0.00 in 0 W/m2
06:38 39.8 °F 29.0 °F 29.93 in WNW 4.0 mph 5.0 mph 65% 0.00 in 0 W/m2
06:44 39.7 °F 29.3 °F 29.93 in WNW 3.0 mph 5.0 mph 66% 0.00 in 0 W/m2
06:50 39.6 °F 29.2 °F 29.93 in WNW 4.0 mph 4.0 mph 66% 0.00 in 0 W/m2
06:56 39.4 °F 29.3 °F 29.94 in NNW 4.0 mph 7.0 mph 67% 0.00 in 0 W/m2
07:02 39.2 °F 29.2 °F 29.94 in WNW 3.0 mph 5.0 mph 67% 0.00 in 0 W/m2
07:08 39.0 °F 29.3 °F 29.95 in NW 3.0 mph 5.0 mph 68% 0.00 in 0 W/m2
07:20 38.7 °F 29.0 °F 29.96 in WNW 4.0 mph 4.0 mph 68% 0.00 in 0 W/m2
07:26 38.5 °F 28.9 °F 29.96 in WNW 3.0 mph 6.0 mph 68% 0.00 in 0 W/m2
07:32 38.4 °F 28.8 °F 29.96 in NW 4.0 mph 5.0 mph 68% 0.00 in 7 W/m2
07:40 38.2 °F 28.6 °F 29.97 in NW 3.0 mph 3.0 mph 68% 0.00 in 12 W/m2
07:46 38.1 °F 28.5 °F 29.97 in WNW 3.0 mph 3.0 mph 68% 0.00 in 14 W/m2
07:52 38.1 °F 28.5 °F 29.97 in WNW 3.0 mph 9.0 mph 68% 0.00 in 32 W/m2
07:58 38.0 °F 28.4 °F 29.97 in NW 4.0 mph 9.0 mph 68% 0.00 in 56 W/m2
08:04 38.0 °F 28.4 °F 29.98 in NW 4.0 mph 5.0 mph 68% 0.00 in 32 W/m2
08:10 38.0 °F 28.4 °F 29.98 in NW 3.0 mph 4.0 mph 68% 0.00 in 26 W/m2
08:16 37.8 °F 27.8 °F 29.98 in WNW 5.0 mph 12.0 mph 67% 0.00 in 21 W/m2
08:22 37.6 °F 27.3 °F 29.99 in NW 6.0 mph 10.0 mph 66% 0.00 in 49 W/m2
08:28 37.4 °F 27.1 °F 29.99 in WNW 6.0 mph 11.0 mph 66% 0.00 in 70 W/m2
08:34 37.2 °F 26.1 °F 29.99 in NNW 7.0 mph 8.0 mph 64% 0.00 in 69 W/m2
08:40 37.1 °F 26.0 °F 29.99 in West 6.0 mph 7.0 mph 64% 0.00 in 70 W/m2
08:46 37.2 °F 25.4 °F 30.00 in NW 6.0 mph 11.0 mph 62% 0.00 in 174 W/m2
08:52 37.9 °F 26.0 °F 30.00 in NW 6.0 mph 7.0 mph 62% 0.00 in 274 W/m2
08:58 38.5 °F 27.0 °F 30.00 in West 5.0 mph 13.0 mph 63% 0.00 in 113 W/m2
09:04 37.2 °F 25.8 °F 30.01 in WNW 6.0 mph 11.0 mph 63% 0.00 in 84 W/m2
09:10 36.4 °F 25.4 °F 30.02 in NNW 7.0 mph 7.0 mph 64% 0.00 in 264 W/m2
09:16 36.0 °F 25.7 °F 30.02 in NW 6.0 mph 8.0 mph 66% 0.00 in 62 W/m2
09:22 36.7 °F 26.0 °F 30.02 in West 7.0 mph 10.0 mph 65% 0.00 in 297 W/m2
09:28 36.7 °F 26.4 °F 30.02 in North 7.0 mph 10.0 mph 66% 0.00 in 162 W/m2
09:40 36.1 °F 25.5 °F 30.03 in NW 6.0 mph 6.0 mph 65% 0.00 in 105 W/m2
09:46 35.7 °F 24.7 °F 30.03 in WNW 5.0 mph 10.0 mph 64% 0.00 in 74 W/m2
09:52 35.6 °F 24.2 °F 30.04 in WNW 6.0 mph 10.0 mph 63% 0.00 in 302 W/m2
09:58 36.1 °F 24.3 °F 30.04 in WNW 7.0 mph 10.0 mph 62% 0.00 in 153 W/m2
10:04 36.2 °F 23.2 °F 30.05 in WNW 6.0 mph 11.0 mph 59% 0.00 in 186 W/m2
10:10 35.7 °F 22.8 °F 30.05 in WNW 7.0 mph 7.0 mph 59% 0.00 in 125 W/m2
10:16 35.8 °F 23.3 °F 30.05 in WNW 6.0 mph 7.0 mph 60% 0.00 in 95 W/m2
10:22 35.9 °F 23.4 °F 30.04 in WNW 6.0 mph 11.0 mph 60% 0.00 in 163 W/m2
10:28 35.5 °F 22.2 °F 30.05 in NW 8.0 mph 11.0 mph 58% 0.00 in 197 W/m2
10:34 35.5 °F 22.6 °F 30.05 in WNW 8.0 mph 11.0 mph 59% 0.00 in 185 W/m2
10:40 35.7 °F 23.2 °F 30.05 in WNW 6.0 mph 6.0 mph 60% 0.00 in 174 W/m2
10:46 36.1 °F 24.3 °F 30.05 in West 5.0 mph 8.0 mph 62% 0.00 in 316 W/m2
10:52 36.4 °F 24.6 °F 30.05 in West 5.0 mph 12.0 mph 62% 0.00 in 207 W/m2
11:04 35.8 °F 24.4 °F 30.05 in NW 5.0 mph 9.0 mph 63% 0.00 in 204 W/m2
11:10 35.2 °F 24.2 °F 30.06 in NW 6.0 mph 6.0 mph 64% 0.00 in 186 W/m2
11:16 35.0 °F 24.0 °F 30.06 in NW 6.0 mph 8.0 mph 64% 0.00 in 186 W/m2
11:22 35.4 °F 24.0 °F 30.06 in West 5.0 mph 11.0 mph 63% 0.00 in 200 W/m2
11:30 35.5 °F 23.0 °F 30.06 in WNW 5.0 mph 5.0 mph 60% 0.00 in 109 W/m2
11:36 35.9 °F 23.4 °F 30.07 in NW 5.0 mph 13.0 mph 60% 0.00 in 151 W/m2
11:42 35.5 °F 23.0 °F 30.07 in NW 4.0 mph 4.0 mph 60% 0.00 in 190 W/m2
11:48 35.5 °F 22.2 °F 30.07 in WNW 5.0 mph 5.0 mph 58% 0.00 in 193 W/m2
11:54 35.5 °F 22.6 °F 30.07 in WNW 5.0 mph 7.0 mph 59% 0.00 in 218 W/m2
12:00 35.6 °F 22.7 °F 30.07 in WNW 5.0 mph 5.0 mph 59% 0.00 in 206 W/m2
12:06 35.9 °F 23.4 °F 30.07 in WNW 4.0 mph 9.0 mph 60% 0.00 in 220 W/m2
12:12 35.8 °F 23.3 °F 30.08 in West 4.0 mph 5.0 mph 60% 0.00 in 214 W/m2
12:18 35.8 °F 23.3 °F 30.08 in WNW 4.0 mph 5.0 mph 60% 0.00 in 209 W/m2
12:24 35.7 °F 22.8 °F 30.08 in NNW 4.0 mph 6.0 mph 59% 0.00 in 204 W/m2
12:30 35.0 °F 22.5 °F 30.08 in WNW 5.0 mph 5.0 mph 60% 0.00 in 211 W/m2
12:36 34.9 °F 22.8 °F 30.08 in NW 5.0 mph 7.0 mph 61% 0.00 in 197 W/m2
12:42 35.0 °F 22.9 °F 30.09 in WNW 5.0 mph 5.0 mph 61% 0.00 in 153 W/m2
12:48 35.0 °F 23.3 °F 30.09 in WNW 4.0 mph 5.0 mph 62% 0.00 in 149 W/m2
12:54 35.2 °F 23.9 °F 30.09 in NNW 3.0 mph 7.0 mph 63% 0.00 in 148 W/m2
13:00 35.2 °F 23.9 °F 30.09 in NW 3.0 mph 3.0 mph 63% 0.00 in 171 W/m2
13:06 35.2 °F 23.5 °F 30.09 in WNW 3.0 mph 4.0 mph 62% 0.00 in 144 W/m2
13:12 34.9 °F 23.2 °F 30.10 in NNW 4.0 mph 5.0 mph 62% 0.00 in 188 W/m2
13:18 34.7 °F 22.6 °F 30.10 in North 5.0 mph 7.0 mph 61% 0.00 in 158 W/m2
13:20 34.7 °F 22.6 °F 30.10 in NW 5.0 mph 7.0 mph 61% 0.00 in 137 W/m2
13:26 34.5 °F 22.8 °F 30.10 in NW 4.0 mph 7.0 mph 62% 0.00 in 144 W/m2
13:32 34.4 °F 21.9 °F 30.11 in West 4.0 mph 4.0 mph 60% 0.00 in 105 W/m2
13:38 34.3 °F 22.2 °F 30.11 in NW 4.0 mph 4.0 mph 61% 0.00 in 104 W/m2
13:44 34.0 °F 22.0 °F 30.11 in NW 3.0 mph 4.0 mph 61% 0.00 in 70 W/m2
13:50 33.7 °F 21.3 °F 30.11 in WNW 3.0 mph 5.0 mph 60% 0.00 in 67 W/m2
13:56 33.5 °F 21.5 °F 30.11 in West 4.0 mph 8.0 mph 61% 0.00 in 84 W/m2
14:02 33.7 °F 22.1 °F 30.11 in WNW 4.0 mph 5.0 mph 62% 0.00 in 91 W/m2
14:08 34.1 °F 22.4 °F 30.12 in NW 3.0 mph 5.0 mph 62% 0.00 in 434 W/m2
14:14 34.8 °F 22.3 °F 30.12 in WNW 4.0 mph 5.0 mph 60% 0.00 in 86 W/m2
14:20 35.2 °F 22.7 °F 30.12 in West 3.0 mph 3.0 mph 60% 0.00 in 390 W/m2
14:26 36.4 °F 22.6 °F 30.12 in NNW 3.0 mph 3.0 mph 57% 0.00 in 366 W/m2
14:32 36.3 °F 22.5 °F 30.12 in North 4.0 mph 6.0 mph 57% 0.00 in 350 W/m2
14:38 36.2 °F 22.4 °F 30.13 in WNW 5.0 mph 7.0 mph 57% 0.00 in 369 W/m2
14:44 36.2 °F 22.0 °F 30.13 in WNW 4.0 mph 6.0 mph 56% 0.00 in 323 W/m2
14:50 36.1 °F 22.7 °F 30.13 in NW 4.0 mph 4.0 mph 58% 0.00 in 323 W/m2
14:56 36.0 °F 22.6 °F 30.14 in NNW 3.0 mph 6.0 mph 58% 0.00 in 304 W/m2
15:02 35.8 °F 22.9 °F 30.14 in NW 4.0 mph 4.0 mph 59% 0.00 in 288 W/m2
15:08 35.1 °F 22.2 °F 30.14 in NW 4.0 mph 6.0 mph 59% 0.00 in 234 W/m2
15:14 35.0 °F 22.5 °F 30.14 in NW 4.0 mph 5.0 mph 60% 0.00 in 174 W/m2
15:20 34.4 °F 21.9 °F 30.15 in NNW 4.0 mph 4.0 mph 60% 0.00 in 77 W/m2
15:26 33.8 °F 21.8 °F 30.15 in NNW 3.0 mph 4.0 mph 61% 0.00 in 32 W/m2
15:32 33.2 °F 21.2 °F 30.15 in WNW 3.0 mph 3.0 mph 61% 0.00 in 39 W/m2
15:38 33.1 °F 21.5 °F 30.15 in NW 3.0 mph 5.0 mph 62% 0.00 in 121 W/m2
15:44 32.9 °F 21.7 °F 30.15 in NW 3.0 mph 3.0 mph 63% 0.00 in 51 W/m2
15:50 32.8 °F 21.6 °F 30.16 in NW 2.0 mph 3.0 mph 63% 0.00 in 32 W/m2
15:56 32.6 °F 21.8 °F 30.16 in NW 2.0 mph 5.0 mph 64% 0.00 in 32 W/m2
16:02 32.3 °F 21.5 °F 30.16 in NNW 3.0 mph 3.0 mph 64% 0.00 in 30 W/m2
16:08 32.0 °F 21.6 °F 30.16 in NW 3.0 mph 5.0 mph 65% 0.00 in 23 W/m2
16:14 31.8 °F 22.1 °F 30.17 in NW 3.0 mph 4.0 mph 67% 0.00 in 25 W/m2
16:20 31.5 °F 22.1 °F 30.18 in North 3.0 mph 6.0 mph 68% 0.00 in 9 W/m2
16:26 31.0 °F 22.0 °F 30.18 in NNE 3.0 mph 6.0 mph 69% 0.00 in 7 W/m2
16:32 30.6 °F 21.6 °F 30.18 in NNW 3.0 mph 4.0 mph 69% 0.00 in 0 W/m2
16:38 30.2 °F 21.6 °F 30.18 in NNW 3.0 mph 4.0 mph 70% 0.00 in 0 W/m2
16:44 29.9 °F 21.6 °F 30.19 in NNW 2.0 mph 3.0 mph 71% 0.00 in 0 W/m2
16:50 29.7 °F 21.4 °F 30.19 in NNW 1.0 mph 1.0 mph 71% 0.00 in 0 W/m2
16:56 29.5 °F 21.6 °F 30.19 in NNW 1.0 mph 2.0 mph 72% 0.00 in 0 W/m2
17:02 29.2 °F 21.3 °F 30.19 in NNW 2.0 mph 3.0 mph 72% 0.00 in 0 W/m2
17:08 29.0 °F 21.1 °F 30.19 in NNW 2.0 mph 3.0 mph 72% 0.00 in 0 W/m2
17:14 28.8 °F 21.2 °F 30.19 in NNW 1.0 mph 2.0 mph 73% 0.00 in 0 W/m2
17:20 28.5 °F 20.9 °F 30.19 in NNW 1.0 mph 1.0 mph 73% 0.00 in 0 W/m2
17:26 28.3 °F 20.7 °F 30.20 in NNW 1.0 mph 1.0 mph 73% 0.00 in 0 W/m2
17:32 28.1 °F 20.9 °F 30.20 in Calm   1.0 mph 74% 0.00 in 0 W/m2
17:39 28.0 °F 20.8 °F 30.20 in Calm   1.0 mph 74% 0.00 in 0 W/m2
17:44 28.0 °F 21.1 °F 30.20 in Calm     75% 0.00 in 0 W/m2
17:50 28.0 °F 21.1 °F 30.21 in Calm     75% 0.00 in 0 W/m2
17:56 27.9 °F 21.0 °F 30.21 in Calm     75% 0.00 in 0 W/m2
18:02 27.8 °F 20.9 °F 30.21 in Calm     75% 0.00 in 0 W/m2
18:08 27.7 °F 20.8 °F 30.21 in Calm     75% 0.00 in 0 W/m2
18:14 27.7 °F 21.1 °F 30.21 in Calm     76% 0.00 in 0 W/m2
18:20 27.7 °F 21.1 °F 30.22 in Calm     76% 0.00 in 0 W/m2
18:26 27.6 °F 21.0 °F 30.22 in Calm     76% 0.00 in 0 W/m2
18:32 27.6 °F 21.0 °F 30.22 in Calm     76% 0.00 in 0 W/m2
18:38 27.5 °F 20.9 °F 30.22 in Calm   1.0 mph 76% 0.00 in 0 W/m2
18:44 27.4 °F 20.8 °F 30.22 in Calm     76% 0.00 in 0 W/m2
18:50 27.3 °F 20.4 °F 30.22 in Calm     75% 0.00 in 0 W/m2
18:56 27.2 °F 20.6 °F 30.22 in Calm     76% 0.00 in 0 W/m2
19:02 27.0 °F 20.4 °F 30.22 in Calm   1.0 mph 76% 0.00 in 0 W/m2
19:08 26.8 °F 20.2 °F 30.22 in Calm   1.0 mph 76% 0.00 in 0 W/m2
19:14 26.5 °F 20.0 °F 30.22 in Calm     76% 0.00 in 0 W/m2
19:20 26.3 °F 19.8 °F 30.22 in Calm     76% 0.00 in 0 W/m2
19:26 26.2 °F 19.7 °F 30.22 in Calm     76% 0.00 in 0 W/m2
19:32 26.0 °F 19.5 °F 30.22 in Calm     76% 0.00 in 0 W/m2
19:38 26.0 °F 19.5 °F 30.22 in Calm     76% 0.00 in 0 W/m2
19:44 25.8 °F 19.3 °F 30.22 in Calm     76% 0.00 in 0 W/m2
19:50 25.6 °F 19.1 °F 30.23 in Calm     76% 0.00 in 0 W/m2
19:56 25.4 °F 18.6 °F 30.23 in Calm     75% 0.00 in 0 W/m2
20:02 25.3 °F 18.5 °F 30.23 in Calm     75% 0.00 in 0 W/m2
20:08 25.2 °F 18.4 °F 30.23 in Calm     75% 0.00 in 0 W/m2
20:14 25.1 °F 18.6 °F 30.23 in Calm     76% 0.00 in 0 W/m2
20:20 25.0 °F 18.5 °F 30.23 in Calm     76% 0.00 in 0 W/m2
20:26 24.7 °F 18.5 °F 30.23 in Calm     77% 0.00 in 0 W/m2
20:32 24.5 °F 18.3 °F 30.23 in Calm     77% 0.00 in 0 W/m2
20:38 24.4 °F 18.2 °F 30.23 in Calm     77% 0.00 in 0 W/m2
20:44 24.3 °F 18.4 °F 30.23 in Calm     78% 0.00 in 0 W/m2
20:50 24.2 °F 18.6 °F 30.24 in Calm     79% 0.00 in 0 W/m2
20:56 24.3 °F 18.4 °F 30.24 in Calm     78% 0.00 in 0 W/m2
21:02 24.1 °F 18.2 °F 30.24 in Calm     78% 0.00 in 0 W/m2
21:08 24.0 °F 18.1 °F 30.25 in Calm     78% 0.00 in 0 W/m2
21:14 23.8 °F 17.9 °F 30.25 in Calm     78% 0.00 in 0 W/m2
21:20 23.7 °F 17.8 °F 30.25 in Calm     78% 0.00 in 0 W/m2
21:26 23.5 °F 17.9 °F 30.25 in Calm     79% 0.00 in 0 W/m2
21:32 23.4 °F 18.1 °F 30.25 in Calm     80% 0.00 in 0 W/m2
21:40 23.2 °F 18.2 °F 30.25 in Calm     81% 0.00 in 0 W/m2
21:46 23.1 °F 18.1 °F 30.25 in Calm     81% 0.00 in 0 W/m2
21:52 22.9 °F 18.2 °F 30.25 in Calm     82% 0.00 in 0 W/m2
21:58 22.7 °F 18.0 °F 30.25 in Calm     82% 0.00 in 0 W/m2
22:04 22.5 °F 17.8 °F 30.26 in Calm     82% 0.00 in 0 W/m2
22:10 22.4 °F 18.0 °F 30.26 in Calm     83% 0.00 in 0 W/m2
22:16 22.2 °F 17.8 °F 30.26 in Calm     83% 0.00 in 0 W/m2
22:22 22.3 °F 18.2 °F 30.26 in Calm     84% 0.00 in 0 W/m2
22:28 22.7 °F 18.6 °F 30.26 in Calm     84% 0.00 in 0 W/m2
22:34 22.9 °F 18.8 °F 30.26 in Calm     84% 0.00 in 0 W/m2
22:40 23.1 °F 19.0 °F 30.26 in Calm   1.0 mph 84% 0.00 in 0 W/m2
22:46 23.3 °F 18.9 °F 30.26 in Calm   1.0 mph 83% 0.00 in 0 W/m2
22:52 23.6 °F 18.6 °F 30.26 in East 1.0 mph 1.0 mph 81% 0.00 in 0 W/m2
22:58 23.6 °F 18.3 °F 30.26 in East 2.0 mph 3.0 mph 80% 0.00 in 0 W/m2
23:04 23.7 °F 18.1 °F 30.26 in East 1.0 mph 3.0 mph 79% 0.00 in 0 W/m2
23:10 23.6 °F 17.7 °F 30.25 in East 1.0 mph 1.0 mph 78% 0.00 in 0 W/m2
23:16 23.4 °F 17.6 °F 30.25 in Calm   1.0 mph 78% 0.00 in 0 W/m2
23:22 23.2 °F 17.4 °F 30.25 in Calm     78% 0.00 in 0 W/m2
23:28 23.1 °F 17.3 °F 30.26 in Calm     78% 0.00 in 0 W/m2
23:34 23.1 °F 17.3 °F 30.26 in Calm     78% 0.00 in 0 W/m2
23:40 23.1 °F 17.3 °F 30.26 in East 1.0 mph 3.0 mph 78% 0.00 in 0 W/m2
23:46 23.2 °F 17.4 °F 30.26 in East 1.0 mph 3.0 mph 78% 0.00 in 0 W/m2
23:52 23.2 °F 17.4 °F 30.26 in East 1.0 mph 1.0 mph 78% 0.00 in 0 W/m2
23:58 23.1 °F 17.3 °F 30.26 in East 1.0 mph 2.0 mph 78% 0.00 in 0 W/m2
Country Meadow, Clay, NY, USA
Compliments of Weather Underground - 2 mb